Terminal Aerodrome Forecast
Issued by NWS Omaha/Valley, NE

Home | Current Version | Previous Version | Graphics & Text | Print | Product List | Glossary On
Versions: 1 2 3 4 5 6 7 8 9 10 11 12 13 14 15 16 17 18 19 20 21 22 23 24 25 26 27 28 29 30 31 32 33 34 35 36 37 38 39 40
000
FTUS43 KOAX 030223 AAA
TAFOFK
TAF AMD
KOFK 030223Z 0302/0324 12010KT P6SM BKN070
      TEMPO 0302/0305 VRB15G25KT 2SM TSRA BKN025CB
     FM030700 21009KT P6SM BKN250
     FM031800 20010KT P6SM SCT060 BKN250=

USA.gov is the U.S. government's official web portal to all federal, state and local government web resources and services.